Joshua Tree, CA

10:17 PM PST on February 26, 2017 (GMT -0800)
Twentynine Palms Expeditionary Air Field

Weather History for KNXP - July, 2013

Change the Weather History Date:

Tuesday, July 30, 2013

  Actual Average Record
Temperature  
Mean Temperature 88 °F -  
Max Temperature 102 °F 100 °F 110 °F (1996)
Min Temperature 75 °F 74 °F 72 °F (1997)
Cooling Degree Days 24    
Growing Degree Days 38 (Base 50)    
Moisture  
Dew Point 45 °F    
Average Humidity 22    
Maximum Humidity 33    
Minimum Humidity 14    
Precipitation  
Precipitation 0.00 in - - ()
Sea Level Pressure  
Sea Level Pressure 29.96 in    
Wind  
Wind Speed 7 mph (SSW)    
Max Wind Speed 22 mph    
Max Gust Speed 34 mph    
Visibility 10 miles    
Events      
Averages and records for this station are not official NWS values.
T = Trace of Precipitation, MM = Missing Value Source: NWS Daily Summary

Daily Weather History Graph

Daily Weather History Graph

Search for Another Location

Airport or City:

Trip Planner

Search our weather history database for the weather conditions in past years. The results will help you decide how hot, cold, wet, or windy it might be!

Date:

Astronomy

Jul. 30, 2013 Rise Set
Actual Time 5:54 AM PDT 7:47 PM PDT
Civil Twilight 5:26 AM PDT 8:14 PM PDT
Nautical Twilight 4:53 AM PDT 8:48 PM PDT
Astronomical Twilight 4:17 AM PDT 9:23 PM PDT
Moon 12:12 AM PDT (7/30) 2:12 PM PDT (7/30)
Length of Visible Light 14h 48m
Length of Day
13h 53m
Last Quarter, 40% of the Moon is Illuminated
Jul 30
Last Quarter
Aug 6
New
Aug 14
First Quarter
Aug 20
Full
Aug 28
Last Quarter

Hourly Weather History & Observations

Time (PDT) Temp. Dew Point Humidity Pressure Visibility Wind Dir Wind Speed Gust Speed Precip Events Conditions
12:56 AM 84.0 °F 39.9 °F 21% 29.94 in 10.0 mi NW 4.6 mph - N/A   Clear
1:56 AM 80.1 °F 39.9 °F 24% 29.94 in 10.0 mi Calm Calm - N/A   Clear
2:56 AM 81.0 °F 37.9 °F 21% 29.94 in 10.0 mi Calm Calm - N/A   Clear
3:56 AM 79.0 °F 39.0 °F 24% 29.95 in 10.0 mi NW 4.6 mph - N/A   Clear
4:56 AM 75.9 °F 43.0 °F 31% 29.97 in 10.0 mi NW 6.9 mph - N/A   Clear
5:56 AM 75.0 °F 44.1 °F 33% 29.99 in 9.0 mi NW 3.5 mph - N/A   Clear
6:56 AM 77.0 °F 44.1 °F 31% 30.00 in 9.0 mi WNW 4.6 mph - N/A   Clear
7:56 AM 82.0 °F 39.0 °F 22% 30.01 in 9.0 mi NW 6.9 mph - N/A   Clear
8:56 AM 87.1 °F 39.0 °F 18% 30.02 in 10.0 mi Calm Calm - N/A   Clear
9:56 AM 90.0 °F 39.0 °F 17% 30.02 in 10.0 mi SSE 6.9 mph - N/A   Clear
10:56 AM 93.0 °F 44.1 °F 18% 30.01 in 10.0 mi ESE 8.1 mph - N/A   Clear
11:56 AM 96.1 °F 46.0 °F 18% 29.99 in 10.0 mi ESE 12.7 mph 20.7 mph N/A   Clear
12:56 PM 98.1 °F 46.9 °F 18% 29.97 in 10.0 mi ESE 16.1 mph 25.3 mph N/A   Clear
1:56 PM 100.9 °F 46.9 °F 16% 29.95 in 10.0 mi SE 19.6 mph 29.9 mph N/A   Partly Cloudy
2:56 PM 102.9 °F 45.0 °F 14% 29.92 in 10.0 mi SSE 21.9 mph 34.5 mph N/A   Partly Cloudy
3:34 PM 102.2 °F 46.4 °F 15% 30.04 in 7.0 mi SSW 15.0 mph 25.3 mph N/A   Partly Cloudy
3:56 PM 100.9 °F 46.0 °F 15% 29.92 in 10.0 mi SSW 10.4 mph 28.8 mph N/A   Partly Cloudy
4:56 PM 100.0 °F 48.0 °F 17% 29.91 in 10.0 mi SSW 10.4 mph 19.6 mph N/A   Partly Cloudy
5:56 PM 99.0 °F 48.9 °F 18% 29.90 in 10.0 mi SW 17.3 mph - N/A   Partly Cloudy
6:56 PM 97.0 °F 48.0 °F 19% 29.91 in 10.0 mi South 13.8 mph - N/A   Partly Cloudy
7:56 PM 93.0 °F 48.9 °F 22% 29.92 in 10.0 mi SSW 10.4 mph - N/A   Partly Cloudy
8:56 PM 90.0 °F 50.0 °F 25% 29.94 in 10.0 mi SSW 10.4 mph - N/A   Clear
9:56 PM 89.1 °F 48.9 °F 25% 29.95 in 10.0 mi SSW 10.4 mph - N/A   Clear
10:56 PM 86.0 °F 50.0 °F 29% 29.97 in 10.0 mi SSE 3.5 mph - N/A   Clear
11:56 PM 88.0 °F 51.1 °F 28% 29.97 in 10.0 mi SSE 6.9 mph 18.4 mph N/A   Clear